Погода в Кузьминском

Россия / Рязанская область     54°51′59″N   39°38′46″E
темп.,
°C
ветер,
м/с
пор.,
м/с
влажн.,
%
обл.,
%
осадки,
мм/ч
давл.,
гПа
погр.,
м
5 марта, пт
пт500:00−3зсз2397100 0.6 1001111
03:00−4ссз2497100 1.3 1002172
06:00−9сз349367 0.0 100587
09:00−8зсз379333 0.0 1007226
12:00−4зсз468966 0.0 1008546
15:00−2зсз477983 0.1 1010948
18:00−6з348822 0.0 101185
21:00−9з338811 0.0 101440
6 марта, сб
сб600:00−11з23870 0.0 101521
03:00−12з22890 0.0 101721
06:00−13з12910 0.0 101621
09:00−10з118926 0.0 101684
12:00−6сз238395 0.0 1016340
15:00−4зсз347778 0.0 1015775
18:00−8зсз348958 0.1 101565
21:00−11з239131 0.1 101628
7 марта, вс
вс700:00−12юз339629 0.0 101537
03:00−13юз489123 0.0 1013147
06:00−10юз6138847 0.0 1009335
09:00−7юз8168074 0.0 1005659
12:00−5юз101691100 0.3 10001060
15:00−3юз101792100 2.0 9961249
18:00−4з61379100 1.3 995922
21:00−8з5147699 1.4 999501
8 марта, пн
пн800:00−9зюз6158111 0.0 999463
03:00−7юз7168255 0.0 997697
06:00−7зюз81586100 0.1 995858
09:00−6з61084100 0.6 9961114
12:00−7сз81185100 0.3 9991176
15:00−7зсз91384100 0.4 10021319
18:00−8зсз61284100 0.1 1004903
21:00−11зсз4119178 0.1 1007306
9 марта, вт
вт900:00−13зсз369539 0.0 1009123
03:00−15сз369640 0.0 1011107
06:00−17сз349670 0.0 101383
09:00−15ссз369377 0.0 1014263
12:00−12ссз468496 0.0 1016672
15:00−11сз468398 0.1 1017809
18:00−14сз3789100 0.1 1018207
21:00−17ссз379385 0.1 1020160